Location: Gull Harbor
(47.1000°N, 122.9000°W)
Time: 21:16:10
(UTC-07:00)

ISS - Pass Details

Date: 25 March 2019
Orbit: 408 x 410 km, 51.6° (Epoch: 22 April)

Event Time Altitude Azimuth Distance (km) Brightness Sun altitude
Rises 19:53:32 0° 232° (SW) 2,328 0.8 -4.6°
Reaches altitude 10° 19:55:38 10° 228° (SW) 1,470 -0.4 -5.0°
Maximum altitude 19:58:53 58° 149° (SSE) 483 -3.6 -5.5°
Drops below altitude 10° 20:02:08 10° 70° (ENE) 1,475 -1.5 -6.0°
Enters shadow 20:03:11 - 67° (ENE) 1,900 -0.9 -6.2°
